SL-12 R/B(AUX MOTOR), 13609

Orbit data source: Space-Track

SL-12 R/B(AUX MOTOR), 13609 is space debris in HEO originally from a launch on Tue, 12 Oct 1982 UTC launched from the Tyuratam Missile And Space Complex (TTMTR). Debris objects in space refer to the collection of defunct objects orbiting the Earth. Examples of debris include non-operational satellites, rocket bodies, and fragments generated from explosions, collisions, or faulty payload assembly.

Loading next visibility...
Identifier
13609, 1982-100G
Orbit
HEO
Country
Flag of CISCIS
Related business
Manufacturer
NPO Energiya
Mission
Spacecraft
Bus & Motor
SOZ, Unknown motor
Mass
Wet unknown, ~60 kg dry
Launch date (UTC)
1982-10-12 (43 years ago)
Launch vehicle
Unknown
Launch site
Tyuratam Missile And Space Complex (TTMTR)
Object type
Payload
Rocket body
Debris
Shape & HBR
Unknown
Radar Cross Section
Medium (>0.1 m² and <1 m²)

Expand to show TLE details & history
Last TLE update: 17 hours ago

TLE from 17 hours ago
0 SL-12 R/B(AUX MOTOR)
1 13609U 82100G   26094.86023685  .00011889  00000-0  13540-2 0  9991
2 13609  52.0649  43.4849 4785375 300.8819  20.6876  6.00772047810198
Epoch: 2026-04-04T20:38Z
TLE epoch observation values (Epoch: 2026-04-04T20:38:44.463Z)
Latitude
0.00009°
Longitude
-99.3866°
Altitude
1,536.777 km
Speed
8.34 km/s
True Right ascension
02h 53m 53s
True Declination
0° 00' 00"
Sunlit
Object was in daylight at epoch
Visualization orbit readout
Latitude
Unknown
Longitude
Unknown
Altitude
Unknown
Speed
Unknown
Apparent Right ascension
Unknown
Apparent Declination
Unknown
Sunlit
N/A
Visualization observer readout
Local Sidereal Time
19:18:51
Azimuth
Unknown
Elevation
Unknown
Doppler factor
Unknown
Orbital elements
Apogee altitude
12,520.894 km
Perigee altitude
287.325 km
Semi-major axis
12,782.247 km
Eccentricity
0.47854
Inclination
52.0649°
RAAN
43.4849°
Arg. of periapsis
300.8819°
True anomaly
59.22671°
Mean anomaly
20.6876°
Eccentric anomaly
37.30436°
Mean motion
1.50187 °/min
Orbital period
239.7 mins
BSTAR
0.001354
Loading maneuver chart data...
Computing Atmospheric mass density...
Loading historical data...
Loading historical data...
Loading historical data...
Loading historical data...
Loading historical data...
Loading historical data...
Loading historical data...

Documentation

Showing up to 5 results
|